[[{"header":{"parameterUnit":"m.s-1","parameterCategory":2,"la1":30.2991,"la2":30.254,"lo1":-89.0895,"lo2":-89.0444,"dy":0.0017,"dx":0.0017,"nx":28,"ny":28,"refTime":"2023-08-31T21:00:00:Z","depth":"0","parameterNumber":2,"parameterNumberName":"U-component_of_CURRENTS"},"data":[0,0,0,0,0,0,0,0,0,0,0,0,0,0,0,0,0,0,0,0,0,0,0,0,0,0,0,0,0,0,0,0,0,0,0,0,0,0,0,0,0,0,0,0,0,0,0,0,0,0,0,0,0,0,0,0,0,0,0.1851,0.1852,0,0.1874,0.1874,0.1874,0.1889,0.189,0.189,0.189,0.1901,0.1901,0.1901,0,0,0,0,0,0,0,0,0,0,0,0,0,0.1817,0.1818,0.1851,0.1852,0.1852,0.1874,0.1874,0.1874,0.1889,0.189,0.189,0.189,0.1901,0.1901,0.1901,0,0,0,0,0,0,0,0,0,0,0,0,0,0.1834,0.1818,0.1851,0.1864,0.1865,0.1874,0.1874,0.1874,0.1889,0.189,0.189,0.189,0.1901,0.1901,0.1901,0.1894,0,0,0.1902,0.1902,0,0,0,0,0,0,0,0,0.1833,0.1835,0.1861,0.1863,0.1864,0.1881,0.1866,0.1881,0.1889,0.1878,0.189,0.1891,0.1894,0.1895,0.1896,0.1895,0.1895,0.1902,0.1902,0.1902,0.1902,0,0,0,0,0,0,0,0.1832,0.1834,0.1859,0.1862,0.1864,0.1867,0.1869,0.1869,0.1882,0.1879,0.1881,0.1886,0.1895,0.1896,0.1896,0.1895,0.1902,0.1902,0.1902,0.1902,0.1928,0.1929,0,0,0,0,0,0,0.1832,0.1833,0.1858,0.1859,0.1851,0.1867,0.187,0.1874,0.1883,0.1885,0.1885,0.1886,0.1896,0.1896,0.1897,0.1924,0.1902,0.1902,0.1902,0.1928,0.1928,0.1929,0,0,0,0,0,0,0.1831,0.1834,0.1857,0.1848,0.1851,0.1867,0.1871,0.1874,0.1879,0.1888,0.189,0.1889,0.1896,0.1897,0.1907,0.1923,0.1902,0.1902,0.1927,0.1928,0.1929,0.1956,0,0,0,0,0,0,0.183,0.1833,0.1833,0.1848,0.1852,0.1868,0.1871,0.1874,0.1882,0.1883,0.1891,0.1892,0.1896,0.1907,0.1907,0.1923,0.1902,0.1926,0.1927,0.1928,0.1954,0.1958,0.1961,0,0,0,0,0,0.1829,0.1828,0.1833,0.1836,0.1852,0.1869,0.1871,0.1882,0.1882,0.1887,0.1895,0.1892,0.1915,0.1908,0.1908,0.1924,0.1925,0.1927,0.1928,0.1953,0.1957,0.1961,0,0,0,0,0,0,0.1811,0.183,0.1836,0.184,0.1857,0.1872,0.1876,0.1882,0.1891,0.1891,0.1896,0.1898,0.1916,0.1913,0.1905,0.1935,0.1921,0.1923,0.194,0.1944,0.1947,0.196,0.1902,0,0,0,0,0,0.1807,0.1813,0.1833,0.1837,0.1845,0.1859,0.1865,0.1875,0.1887,0.1891,0.1898,0.1907,0.1921,0.1926,0.1935,0.1946,0.1959,0.1957,0.1961,0.1963,0.1975,0.1988,0.1994,0.1934,0.1934,0.1934,0,0,0.18,0.1812,0.1814,0.1834,0.1845,0.1864,0.1864,0.1876,0.1896,0.189,0.1912,0.1916,0.1926,0.1947,0.1954,0.1946,0.1994,0.1965,0.1968,0.1978,0.199,0.1996,0.2001,0.1935,0.1935,0.1934,0,0,0.1795,0.1801,0.1809,0.1825,0.1847,0.1862,0.1867,0.1886,0.1899,0.1917,0.1925,0.1942,0.1951,0.1972,0.1981,0.2005,0.201,0.2003,0.203,0.2043,0.2048,0.2052,0.2103,0.2112,0.2004,0.2004,0.2004,0,0.1787,0.1804,0.1813,0.1831,0.1849,0.1863,0.1884,0.19,0.1921,0.1935,0.1929,0.1962,0.197,0.2006,0.2021,0.2015,0.203,0.2014,0.2047,0.2052,0.2056,0.2107,0.2116,0.2006,0.2006,0.2005,0.2005,0,0.1796,0.1812,0.1818,0.185,0.1868,0.1887,0.1916,0.1937,0.1949,0.1963,0.1994,0.2005,0.2028,0.2032,0.2037,0.2074,0.208,0.2049,0.2037,0.2064,0.2116,0.2125,0.2008,0.2007,0.2007,0.2007,0,0,0.1776,0.1817,0.1821,0.1843,0.1883,0.19,0.1939,0.1978,0.2008,0.2018,0.2053,0.2079,0.208,0.2091,0.2095,0.2109,0.2164,0.2095,0.2095,0.2148,0.222,0.231,0.2328,0.2129,0.213,0.2131,0.2255,0,0.1785,0.1822,0.1842,0.1883,0.1908,0.194,0.1976,0.2011,0.204,0.2075,0.2087,0.2118,0.2103,0.212,0.2131,0.2159,0.2185,0.2136,0.2186,0.2189,0.2265,0.2341,0.23,0.2414,0.2264,0.2265,0.2266,0,0.1793,0.182,0.1858,0.1912,0.1925,0.1948,0.2015,0.2051,0.2102,0.2125,0.2152,0.2162,0.221,0.2175,0.2239,0.2206,0.2222,0.2233,0.2237,0.2317,0.2295,0.2358,0.2436,0.2367,0.2281,0.228,0.2279,0,0.1784,0.1833,0.1866,0.1883,0.1942,0.1966,0.2,0.2058,0.2092,0.2159,0.2184,0.2229,0.2261,0.2278,0.2329,0.2279,0.2399,0.2328,0.2427,0.2434,0.2412,0.2417,0.2431,0.2365,0.2365,0.2365,0.2364,0,0.1792,0.1818,0.186,0.1879,0.1916,0.196,0.2009,0.2055,0.2114,0.2175,0.2201,0.2271,0.2281,0.2351,0.2367,0.2469,0.2438,0.2469,0.2479,0.2426,0.243,0.2377,0.2341,0.2369,0.2368,0.2367,0.2367,0,0.1776,0.1809,0.1842,0.1896,0.1911,0.1935,0.1997,0.2042,0.2101,0.2183,0.2207,0.2306,0.2436,0.247,0.2543,0.2543,0.2562,0.2646,0.2617,0.2622,0.2636,0.2604,0.2547,0.2467,0.277,0.2773,0.2775,0,0.1773,0.1789,0.1836,0.1854,0.1874,0.1917,0.1957,0.2026,0.2084,0.2233,0.2281,0.2421,0.2536,0.2698,0.2767,0.285,0.2698,0.2832,0.2726,0.2677,0.2646,0.2481,0.2402,0.2711,0.2712,0.2714,0.2715,0,0.1759,0.1771,0.1796,0.1832,0.1866,0.1906,0.1971,0.2003,0.2124,0.2202,0.2361,0.2461,0.268,0.2786,0.2913,0.2943,0.2719,0.2868,0.2793,0.2611,0.2452,0.2366,0.2614,0.2729,0.2727,0.2726,0.2726,0.2725,0.1737,0.1744,0.1774,0.1807,0.1847,0.1886,0.1904,0.1998,0.2079,0.2208,0.2375,0.2519,0.2721,0.2919,0.2937,0.2955,0.2862,0.2858,0.2832,0.2674,0.2568,0.2896,0.3033,0.3033,0.3033,0.3034,0.3034,0,0.1705,0.1724,0.1754,0.1784,0.1811,0.1847,0.1913,0.1935,0.2024,0.2193,0.2331,0.2568,0.2705,0.2826,0.2969,0.2908,0.2695,0.2825,0.2538,0.2464,0.275,0.2719,0.2823,0.2823,0.2823,0.2823,0.2823,0.2823,0.1688,0.1701,0.1721,0.1741,0.1767,0.1775,0.1798,0.1846,0.194,0.2094,0.224,0.2393,0.2636,0.285,0.2869,0.2804,0.2551,0.2496,0.242,0.26,0.2597,0.2594,0.2554,0.2621,0.2621,0.2005,0.2001,0.1998]},{"header":{"parameterUnit":"m.s-1","parameterCategory":2,"la1":30.2991,"la2":30.254,"lo1":-89.0895,"lo2":-89.0444,"dy":0.0017,"dx":0.0017,"nx":28,"ny":28,"refTime":"2023-08-31T21:00:00:Z","depth":"0","parameterNumber":3,"parameterNumberName":"V-component_of_CURRENTS"},"data":[0,0,0,0,0,0,0,0,0,0,0,0,0,0,0,0,0,0,0,0,0,0,0,0,0,0,0,0,0,0,0,0,0,0,0,0,0,0,0,0,0,0,0,0,0,0,0,0,0,0,0,0,0,0,0,0,0,0,-0.0097,-0.0097,0,-0.0141,-0.0142,-0.0142,-0.0184,-0.0185,-0.0185,-0.0186,-0.0265,-0.0266,-0.0268,0,0,0,0,0,0,0,0,0,0,0,0,0,-0.0071,-0.0071,-0.0097,-0.0097,-0.0098,-0.0141,-0.0142,-0.0142,-0.0184,-0.0185,-0.0185,-0.0186,-0.0264,-0.0266,-0.0268,0,0,0,0,0,0,0,0,0,0,0,0,0,-0.0096,-0.0071,-0.0097,-0.0123,-0.0126,-0.0141,-0.0142,-0.0143,-0.0184,-0.0185,-0.0185,-0.0186,-0.0264,-0.0266,-0.0268,-0.0269,0,0,-0.0276,-0.0277,0,0,0,0,0,0,0,0,-0.0094,-0.0097,-0.0119,-0.0122,-0.0125,-0.0157,-0.0162,-0.0187,-0.0184,-0.0163,-0.0186,-0.0186,-0.0231,-0.0236,-0.0243,-0.0273,-0.0276,-0.0276,-0.0278,-0.0279,-0.028,0,0,0,0,0,0,0,-0.0092,-0.0095,-0.0115,-0.0119,-0.0123,-0.0141,-0.0145,-0.0167,-0.0193,-0.0164,-0.0168,-0.0171,-0.0233,-0.0241,-0.0246,-0.0278,-0.0276,-0.0278,-0.028,-0.0281,-0.0325,-0.0324,0,0,0,0,0,0,-0.0084,-0.0093,-0.0113,-0.0116,-0.011,-0.0141,-0.0145,-0.0147,-0.0192,-0.02,-0.0171,-0.0173,-0.0236,-0.0243,-0.0249,-0.0264,-0.0279,-0.0281,-0.0283,-0.0325,-0.0324,-0.0324,0,0,0,0,0,0,-0.0083,-0.0085,-0.0112,-0.0106,-0.011,-0.014,-0.0141,-0.0147,-0.0156,-0.0197,-0.0205,-0.0174,-0.0237,-0.0245,-0.0264,-0.0267,-0.0282,-0.0285,-0.0325,-0.0325,-0.0324,-0.0288,0,0,0,0,0,0,-0.0082,-0.0084,-0.0081,-0.0105,-0.011,-0.0117,-0.0141,-0.0147,-0.0157,-0.0161,-0.0202,-0.021,-0.0238,-0.026,-0.0266,-0.0271,-0.0286,-0.0326,-0.0325,-0.0324,-0.0289,-0.0286,-0.0283,0,0,0,0,0,-0.0081,-0.0071,-0.008,-0.0083,-0.0104,-0.0117,-0.0121,-0.0145,-0.0156,-0.0157,-0.0183,-0.0209,-0.0261,-0.0261,-0.0269,-0.0274,-0.0326,-0.0325,-0.0324,-0.0291,-0.0287,-0.0283,0,0,0,0,0,0,-0.0056,-0.0075,-0.0086,-0.0082,-0.0097,-0.0123,-0.0124,-0.014,-0.016,-0.0163,-0.0203,-0.0212,-0.0232,-0.0252,-0.0252,-0.0284,-0.0299,-0.0299,-0.027,-0.0267,-0.0264,-0.0274,-0.0289,0,0,0,0,0,-0.0048,-0.0048,-0.0069,-0.0066,-0.007,-0.0096,-0.0103,-0.0118,-0.014,-0.0149,-0.0177,-0.0207,-0.0234,-0.0249,-0.0273,-0.0287,-0.0318,-0.0296,-0.0293,-0.029,-0.0302,-0.0361,-0.0365,-0.0322,-0.0322,-0.0322,0,0,-0.0038,-0.0048,-0.0048,-0.0061,-0.0074,-0.0078,-0.0102,-0.0108,-0.0117,-0.0154,-0.017,-0.0196,-0.0234,-0.0253,-0.0264,-0.0271,-0.031,-0.0289,-0.0286,-0.0301,-0.036,-0.0365,-0.0369,-0.0321,-0.0321,-0.0321,0,0,-0.0018,-0.0024,-0.002,-0.0029,-0.0044,-0.006,-0.0059,-0.0082,-0.0097,-0.0111,-0.0145,-0.0171,-0.0203,-0.0237,-0.0258,-0.0251,-0.0291,-0.0255,-0.0251,-0.0306,-0.0311,-0.0315,-0.0324,-0.033,-0.0254,-0.0254,-0.0254,0,-0.0005,-0.0003,-0.0019,-0.0018,-0.0024,-0.0049,-0.0047,-0.0064,-0.0091,-0.0109,-0.0111,-0.0176,-0.0201,-0.0244,-0.0241,-0.0247,-0.0272,-0.0261,-0.0304,-0.0309,-0.0315,-0.0323,-0.033,-0.0252,-0.0252,-0.0252,-0.0253,0,0.0014,0.0015,0.002,0.001,0.0003,0.0003,-0.0022,-0.0034,-0.0052,-0.0078,-0.0118,-0.0152,-0.0199,-0.0203,-0.0221,-0.0269,-0.0269,-0.0293,-0.0315,-0.0317,-0.0325,-0.0333,-0.0249,-0.025,-0.0251,-0.0251,0,0,0.0044,0.0034,0.0035,0.0035,0.0017,0.0014,-0.0001,-0.0029,-0.0047,-0.0077,-0.0108,-0.0152,-0.0182,-0.0208,-0.0236,-0.0277,-0.0316,-0.0298,-0.0302,-0.0309,-0.0411,-0.0357,-0.036,-0.0354,-0.0356,-0.0358,-0.0389,0,0.0063,0.0072,0.0058,0.0065,0.0068,0.0039,0.0028,-0.0002,-0.0034,-0.0068,-0.0121,-0.0153,-0.0182,-0.0196,-0.0251,-0.03,-0.0341,-0.0304,-0.0407,-0.0409,-0.0365,-0.037,-0.0313,-0.0333,-0.0397,-0.0398,-0.0399,0,0.0084,0.0087,0.0097,0.0089,0.0088,0.0086,0.0055,0.0042,-0.0018,-0.0047,-0.0107,-0.0144,-0.0204,-0.0226,-0.0335,-0.031,-0.0365,-0.0402,-0.0405,-0.0381,-0.0372,-0.035,-0.0346,-0.0501,-0.0412,-0.0411,-0.041,0,0.0112,0.0113,0.0122,0.012,0.0108,0.0102,0.0093,0.0046,0.0039,-0.0035,-0.0041,-0.0143,-0.0155,-0.0269,-0.0328,-0.0345,-0.0433,-0.0469,-0.0473,-0.0467,-0.0453,-0.0444,-0.0619,-0.0565,-0.0565,-0.0565,-0.0565,0,0.0135,0.0144,0.0138,0.0144,0.0158,0.0134,0.0134,0.0102,0.0066,0.0085,-0.0023,-0.0008,-0.0168,-0.0223,-0.0325,-0.0399,-0.0436,-0.0475,-0.0484,-0.0432,-0.0421,-0.0582,-0.0666,-0.0566,-0.0566,-0.0566,-0.0566,0,0.0164,0.0158,0.0174,0.017,0.0174,0.0184,0.0188,0.0193,0.0147,0.0169,0.016,0.0092,0.0038,-0.0105,-0.0247,-0.0349,-0.0518,-0.0473,-0.0371,-0.0367,-0.0528,-0.0609,-0.0769,-0.0841,-0.0504,-0.0503,-0.0502,0,0.0179,0.019,0.0205,0.0228,0.023,0.0244,0.0267,0.0234,0.0257,0.0268,0.0303,0.0257,0.0271,0.0079,-0.0113,-0.029,-0.0452,-0.0375,-0.0414,-0.0533,-0.0633,-0.0692,-0.0747,-0.0367,-0.0365,-0.0364,-0.0362,0,0.0215,0.0219,0.0236,0.0286,0.0318,0.0352,0.0389,0.0427,0.043,0.0481,0.0575,0.0593,0.0431,0.0291,0.0026,-0.0106,-0.0468,-0.0347,-0.0526,-0.0586,-0.0611,-0.0682,-0.0322,-0.0349,-0.035,-0.0351,-0.0352,-0.0352,0.0248,0.0273,0.0305,0.0354,0.04,0.0476,0.0538,0.061,0.0706,0.0839,0.0837,0.0935,0.0652,0.0317,0.0077,-0.0322,-0.0357,-0.0451,-0.0548,-0.0603,-0.0662,-0.0241,-0.0245,-0.0246,-0.0247,-0.0247,-0.0248,0,0.0298,0.0328,0.0377,0.0447,0.0524,0.0529,0.0639,0.0732,0.091,0.1062,0.1188,0.1162,0.0811,0.0397,-0.0148,-0.0471,-0.0619,-0.0661,-0.0773,-0.083,-0.0501,-0.0486,-0.0476,-0.0475,-0.0475,-0.0475,-0.0475,-0.0475,0.0328,0.0387,0.0414,0.0548,0.0609,0.0736,0.0819,0.0974,0.1111,0.1362,0.1485,0.1531,0.1214,0.0183,-0.0565,-0.075,-0.1018,-0.1029,-0.1205,-0.1018,-0.1007,-0.0997,-0.1006,-0.1105,-0.1106,-0.148,-0.1484,-0.1487]}],[{"header":{"parameterUnit":"m.s-1","parameterCategory":2,"la1":30.2991,"la2":30.254,"lo1":-89.0895,"lo2":-89.0444,"dy":0.0017,"dx":0.0017,"nx":28,"ny":28,"refTime":"2023-08-31T21:00:00:Z","depth":"2","parameterNumber":2,"parameterNumberName":"U-component_of_CURRENTS"},"data":[0,0,0,0,0,0,0,0,0,0,0,0,0,0,0,0,0,0,0,0,0,0,0,0,0,0,0,0,0,0,0,0,0,0,0,0,0,0,0,0,0,0,0,0,0,0,0,0,0,0,0,0,0,0,0,0,0,0,0.1589,0.1589,0,0.1618,0.1619,0.1619,0.1644,0.1645,0.1645,0.1645,0.1667,0.1668,0.1668,0,0,0,0,0,0,0,0,0,0,0,0,0,0.1564,0.1565,0.1589,0.1589,0.1589,0.1618,0.1619,0.1619,0.1644,0.1645,0.1645,0.1645,0.1667,0.1668,0.1668,0,0,0,0,0,0,0,0,0,0,0,0,0,0.1583,0.1565,0.1589,0.1605,0.1607,0.1618,0.1619,0.1619,0.1644,0.1645,0.1645,0.1645,0.1667,0.1668,0.1668,0.1665,0,0,0.167,0.167,0,0,0,0,0,0,0,0,0.1582,0.1584,0.1602,0.1604,0.1606,0.1628,0.1618,0.1634,0.1644,0.1631,0.1645,0.1646,0.1653,0.1655,0.166,0.1666,0.1667,0.167,0.167,0.1671,0.1671,0,0,0,0,0,0,0,0.158,0.1583,0.1601,0.1603,0.1605,0.1614,0.1617,0.1621,0.164,0.1632,0.1634,0.1636,0.1654,0.166,0.1661,0.1667,0.167,0.1671,0.1671,0.1671,0.1715,0.1716,0,0,0,0,0,0,0.1575,0.1581,0.16,0.1602,0.1594,0.1614,0.1618,0.1621,0.164,0.1643,0.1636,0.1637,0.1659,0.166,0.1662,0.1696,0.1671,0.1671,0.1671,0.1714,0.1715,0.1716,0,0,0,0,0,0,0.1574,0.1576,0.1599,0.1592,0.1595,0.1614,0.1617,0.1621,0.1634,0.1643,0.1646,0.1646,0.1659,0.1661,0.1678,0.1695,0.1671,0.1672,0.1713,0.1714,0.1715,0.1739,0,0,0,0,0,0,0.1573,0.1576,0.1582,0.1591,0.1595,0.1614,0.1617,0.1621,0.1634,0.1637,0.1652,0.1654,0.1659,0.1677,0.1678,0.1696,0.1672,0.1712,0.1714,0.1715,0.1738,0.1741,0.1745,0,0,0,0,0,0.1572,0.1575,0.1582,0.1584,0.1601,0.1614,0.1618,0.1632,0.1635,0.1645,0.1656,0.1654,0.1688,0.1678,0.1679,0.1697,0.1711,0.1713,0.1715,0.1736,0.1741,0.1744,0,0,0,0,0,0,0.1563,0.1578,0.1586,0.1592,0.1607,0.1619,0.1626,0.1635,0.1651,0.1655,0.1661,0.1664,0.1686,0.1687,0.1676,0.1715,0.1701,0.1703,0.1716,0.1721,0.1724,0.1747,0.1673,0,0,0,0,0,0.1564,0.1573,0.1588,0.1594,0.16,0.1614,0.1623,0.1634,0.1647,0.1655,0.1667,0.1681,0.1694,0.1703,0.1714,0.1731,0.1753,0.1746,0.1749,0.1752,0.1773,0.1808,0.1817,0.1722,0.1722,0.1722,0,0,0.1561,0.1571,0.1576,0.1593,0.1604,0.1622,0.1621,0.1635,0.1657,0.1653,0.1685,0.1691,0.17,0.1725,0.1735,0.1729,0.1792,0.1754,0.1757,0.1777,0.1811,0.1821,0.1829,0.1723,0.1723,0.1723,0,0,0.1561,0.1569,0.1581,0.1595,0.1615,0.1628,0.1634,0.1654,0.167,0.1695,0.1701,0.1723,0.1739,0.1758,0.1765,0.1794,0.1806,0.1793,0.1833,0.1866,0.1874,0.1882,0.1927,0.1938,0.1797,0.1797,0.1797,0,0.156,0.1575,0.1586,0.1603,0.1617,0.1632,0.1651,0.167,0.1697,0.1717,0.1711,0.1756,0.1759,0.1798,0.1813,0.1804,0.1829,0.1813,0.1871,0.1879,0.1887,0.193,0.1943,0.1798,0.1798,0.1798,0.1798,0,0.1572,0.1588,0.1593,0.1625,0.1643,0.1658,0.1686,0.1713,0.173,0.1753,0.1794,0.1803,0.1837,0.1835,0.1835,0.1889,0.1892,0.1868,0.1861,0.1898,0.1941,0.1954,0.18,0.18,0.18,0.1799,0,0,0.1557,0.1596,0.1599,0.1622,0.1656,0.1674,0.1713,0.1756,0.1794,0.1818,0.187,0.1889,0.1903,0.1914,0.1914,0.1944,0.2013,0.1935,0.1936,0.1982,0.2105,0.208,0.2091,0.1998,0.2,0.2002,0.2116,0,0.1565,0.1598,0.1619,0.166,0.168,0.1712,0.1751,0.1795,0.1832,0.1888,0.1908,0.1957,0.1929,0.1957,0.1979,0.2012,0.2047,0.1986,0.2062,0.2065,0.204,0.2105,0.1939,0.2024,0.2128,0.213,0.2132,0,0.1571,0.1594,0.1629,0.1686,0.17,0.1734,0.1805,0.1846,0.1922,0.195,0.1998,0.2026,0.2091,0.2052,0.213,0.2095,0.2111,0.2124,0.2127,0.2109,0.2064,0.2003,0.2043,0.2152,0.2151,0.2149,0.2148,0,0.1556,0.1603,0.1632,0.1649,0.1714,0.1749,0.1796,0.1869,0.1915,0.201,0.2055,0.2118,0.2168,0.2198,0.2231,0.2194,0.2313,0.2259,0.2252,0.2251,0.2129,0.2113,0.2316,0.2316,0.2316,0.2315,0.2315,0,0.1555,0.1579,0.1631,0.1651,0.1701,0.1754,0.1824,0.1878,0.1967,0.2043,0.2094,0.2162,0.2207,0.2275,0.2282,0.2323,0.2356,0.229,0.2287,0.2132,0.2116,0.2234,0.2223,0.232,0.2319,0.2318,0.2317,0,0.1532,0.1564,0.1602,0.1671,0.1695,0.1737,0.1834,0.1885,0.1974,0.2079,0.2121,0.2223,0.2321,0.2359,0.2432,0.2394,0.2432,0.2429,0.2257,0.2231,0.2334,0.2323,0.2445,0.2445,0.2445,0.2446,0.2446,0,0.1525,0.1539,0.1603,0.1628,0.1663,0.1729,0.1773,0.1873,0.194,0.2116,0.217,0.2304,0.2356,0.2451,0.2455,0.2481,0.2484,0.2323,0.2214,0.2368,0.2352,0.2341,0.2329,0.2065,0.2062,0.206,0.2058,0,0.1508,0.1527,0.1559,0.1604,0.1652,0.1701,0.1789,0.1829,0.1972,0.2047,0.2171,0.223,0.2358,0.2312,0.236,0.2343,0.2305,0.2275,0.2497,0.2055,0.2018,0.1999,0.2,0.2036,0.2038,0.204,0.2041,0.2042,0.1489,0.15,0.1539,0.1575,0.1631,0.1671,0.1687,0.1773,0.1842,0.1946,0.2072,0.2101,0.2168,0.2149,0.2112,0.2102,0.2241,0.2122,0.2126,0.2133,0.2066,0.203,0.204,0.2042,0.2044,0.2046,0.2047,0,0.1459,0.1474,0.1508,0.155,0.1575,0.1629,0.1693,0.168,0.1715,0.183,0.1887,0.1773,0.1767,0.1843,0.1802,0.1812,0.1752,0.1734,0.1635,0.1661,0.1682,0.1586,0.1436,0.1434,0.1431,0.1429,0,0,0.1443,0.1449,0.146,0.1476,0.1512,0.152,0.1532,0.1518,0.157,0.1535,0.1555,0.1688,0.1799,0.1584,0.1579,0.1502,0.1557,0.1448,0.1949,0.186,0.1878,0.1934,0.1821,0,0,0,0,0]},{"header":{"parameterUnit":"m.s-1","parameterCategory":2,"la1":30.2991,"la2":30.254,"lo1":-89.0895,"lo2":-89.0444,"dy":0.0017,"dx":0.0017,"nx":28,"ny":28,"refTime":"2023-08-31T21:00:00:Z","depth":"2","parameterNumber":3,"parameterNumberName":"V-component_of_CURRENTS"},"data":[0,0,0,0,0,0,0,0,0,0,0,0,0,0,0,0,0,0,0,0,0,0,0,0,0,0,0,0,0,0,0,0,0,0,0,0,0,0,0,0,0,0,0,0,0,0,0,0,0,0,0,0,0,0,0,0,0,0,-0.0033,-0.0033,0,-0.0078,-0.0078,-0.0079,-0.0116,-0.0116,-0.0116,-0.0116,-0.019,-0.0191,-0.0193,0,0,0,0,0,0,0,0,0,0,0,0,0,0.0,-0.0,-0.0033,-0.0033,-0.0033,-0.0077,-0.0078,-0.0079,-0.0116,-0.0116,-0.0116,-0.0117,-0.0189,-0.0191,-0.0193,0,0,0,0,0,0,0,0,0,0,0,0,0,-0.0027,-0.0,-0.0032,-0.0057,-0.0059,-0.0077,-0.0078,-0.0079,-0.0115,-0.0116,-0.0116,-0.0117,-0.0189,-0.0191,-0.0193,-0.0199,0,0,-0.0201,-0.0202,0,0,0,0,0,0,0,0,-0.0025,-0.0028,-0.0052,-0.0055,-0.0058,-0.0091,-0.0093,-0.012,-0.0115,-0.0095,-0.0116,-0.0117,-0.0158,-0.0163,-0.0172,-0.0203,-0.0206,-0.0201,-0.0203,-0.0204,-0.0205,0,0,0,0,0,0,0,-0.0023,-0.0027,-0.0051,-0.0053,-0.0056,-0.0072,-0.0077,-0.0099,-0.0125,-0.0097,-0.0099,-0.0103,-0.016,-0.0169,-0.0174,-0.0207,-0.0201,-0.0203,-0.0205,-0.0206,-0.0255,-0.0254,0,0,0,0,0,0,-0.0015,-0.0025,-0.005,-0.0052,-0.0041,-0.0072,-0.0077,-0.008,-0.0124,-0.013,-0.0102,-0.0104,-0.0165,-0.0171,-0.0176,-0.0188,-0.0204,-0.0206,-0.0208,-0.0255,-0.0255,-0.0254,0,0,0,0,0,0,-0.0014,-0.0016,-0.0048,-0.0039,-0.0044,-0.0072,-0.0076,-0.0081,-0.0091,-0.0128,-0.0135,-0.0107,-0.0165,-0.0173,-0.0192,-0.0192,-0.0207,-0.021,-0.0255,-0.0255,-0.0254,-0.0211,0,0,0,0,0,0,-0.0013,-0.0016,-0.0015,-0.0038,-0.0044,-0.0056,-0.0075,-0.0081,-0.0092,-0.0096,-0.0134,-0.0142,-0.0166,-0.0188,-0.0195,-0.0195,-0.0212,-0.0255,-0.0255,-0.0255,-0.0213,-0.021,-0.0207,0,0,0,0,0,-0.0011,-0.0006,-0.0014,-0.0017,-0.0042,-0.0056,-0.006,-0.0082,-0.0092,-0.0094,-0.0118,-0.0141,-0.0191,-0.019,-0.0197,-0.0199,-0.0255,-0.0255,-0.0255,-0.0214,-0.021,-0.0207,0,0,0,0,0,0,0.001,-0.001,-0.0019,-0.0021,-0.0036,-0.0061,-0.0064,-0.0079,-0.0099,-0.0101,-0.0137,-0.0145,-0.0163,-0.0185,-0.0183,-0.0212,-0.0227,-0.0228,-0.0194,-0.0191,-0.0187,-0.0189,-0.0214,0,0,0,0,0,0.0016,0.0013,-0.0008,-0.0009,-0.0014,-0.0038,-0.0046,-0.006,-0.0081,-0.009,-0.0117,-0.0144,-0.0167,-0.0181,-0.0204,-0.0218,-0.0249,-0.0224,-0.0221,-0.0218,-0.0224,-0.0292,-0.0296,-0.0253,-0.0253,-0.0253,0,0,0.0023,0.0013,0.0011,-0.0004,-0.0017,-0.002,-0.0044,-0.0052,-0.0055,-0.0095,-0.0107,-0.0133,-0.0167,-0.0183,-0.0194,-0.0202,-0.0237,-0.0218,-0.0215,-0.0223,-0.0292,-0.0297,-0.0301,-0.0253,-0.0253,-0.0253,0,0,0.004,0.003,0.0033,0.0024,0.001,-0.0004,-0.0004,-0.0028,-0.004,-0.0053,-0.0082,-0.0108,-0.014,-0.0167,-0.0184,-0.0177,-0.0218,-0.0183,-0.0171,-0.0236,-0.024,-0.0245,-0.0247,-0.0252,-0.0183,-0.0183,-0.0183,0,0.0051,0.0053,0.0033,0.0036,0.0034,0.0006,0.0013,-0.0003,-0.003,-0.0041,-0.0051,-0.0107,-0.0134,-0.0161,-0.016,-0.0171,-0.0199,-0.0181,-0.0233,-0.0238,-0.0244,-0.0245,-0.0251,-0.0181,-0.0181,-0.0181,-0.0181,0,0.007,0.0073,0.0076,0.0071,0.0066,0.0068,0.0047,0.0038,0.0021,-0.0003,-0.0033,-0.0071,-0.0112,-0.0118,-0.0139,-0.0184,-0.0185,-0.0221,-0.0243,-0.0246,-0.0246,-0.0253,-0.0177,-0.0178,-0.0179,-0.0179,0,0,0.0093,0.0091,0.0092,0.0099,0.0087,0.0085,0.0082,0.0066,0.0059,0.0024,-0.0003,-0.0037,-0.0074,-0.0096,-0.0128,-0.0178,-0.0222,-0.0215,-0.0219,-0.0215,-0.0329,-0.029,-0.0294,-0.028,-0.0282,-0.0284,-0.0298,0,0.0116,0.0135,0.0125,0.0143,0.0153,0.0131,0.0133,0.0112,0.0085,0.0048,-0.0005,-0.0043,-0.0062,-0.0087,-0.0141,-0.021,-0.0248,-0.0213,-0.0328,-0.033,-0.0297,-0.0304,-0.0281,-0.0291,-0.0305,-0.0307,-0.0308,0,0.014,0.0152,0.0175,0.0185,0.0187,0.019,0.0183,0.0176,0.012,0.0094,0.0037,-0.0017,-0.0082,-0.0116,-0.0221,-0.0202,-0.0264,-0.0311,-0.0314,-0.0305,-0.0307,-0.03,-0.0304,-0.032,-0.0319,-0.0318,-0.0318,0,0.0172,0.0187,0.0209,0.0212,0.0216,0.0221,0.0217,0.0188,0.0183,0.0104,0.0086,-0.0007,-0.0044,-0.0157,-0.0226,-0.0249,-0.0338,-0.0386,-0.0395,-0.0391,-0.0407,-0.0401,-0.0479,-0.0479,-0.0479,-0.0479,-0.0479,0,0.0202,0.022,0.0225,0.0237,0.0267,0.0251,0.0263,0.0246,0.0205,0.022,0.0104,0.0112,-0.0065,-0.0125,-0.0225,-0.0301,-0.0334,-0.0391,-0.0407,-0.0384,-0.0376,-0.0443,-0.0439,-0.0479,-0.0479,-0.0479,-0.0479,0,0.0232,0.0235,0.0263,0.0275,0.0283,0.0299,0.0304,0.0317,0.0271,0.028,0.0255,0.0182,0.0118,-0.0023,-0.0173,-0.0261,-0.0366,-0.0385,-0.0306,-0.0313,-0.0378,-0.0371,-0.0431,-0.043,-0.043,-0.0429,-0.0428,0,0.0248,0.0266,0.0295,0.032,0.0327,0.0346,0.0377,0.0351,0.0374,0.0372,0.0395,0.0321,0.0313,0.0119,-0.0075,-0.025,-0.0288,-0.0331,-0.039,-0.0372,-0.0381,-0.0375,-0.0369,-0.0375,-0.0374,-0.0373,-0.0373,0,0.0282,0.029,0.0316,0.0371,0.0407,0.0448,0.0488,0.052,0.0527,0.0551,0.0616,0.0597,0.0417,0.0241,-0.0013,-0.0126,-0.0316,-0.032,-0.0352,-0.0383,-0.0319,-0.0327,-0.0324,-0.0366,-0.0366,-0.0367,-0.0367,-0.0367,0.0309,0.0336,0.0373,0.0425,0.0476,0.0555,0.061,0.0669,0.0739,0.0793,0.0794,0.0775,0.0544,0.0218,0.0007,-0.0232,-0.0242,-0.0338,-0.0341,-0.0345,-0.0329,-0.0267,-0.0297,-0.0298,-0.0298,-0.0298,-0.0298,0,0.0344,0.0376,0.0428,0.0498,0.0569,0.0586,0.0695,0.0757,0.0881,0.0927,0.0962,0.0771,0.0556,0.0296,-0.0061,-0.0272,-0.0312,-0.0324,-0.0345,-0.0349,-0.0353,-0.034,-0.031,-0.031,-0.0311,-0.0312,0,0,0.0364,0.0418,0.0448,0.0565,0.0624,0.0738,0.0815,0.0914,0.097,0.1026,0.1011,0.0939,0.0631,0.0374,0.0082,-0.0117,-0.0181,-0.0146,-0.0113,-0.0106,-0.0107,-0.0333,-0.0312,0,0,0,0,0]}],[{"header":{"parameterUnit":"m.s-1","parameterCategory":2,"la1":30.2991,"la2":30.254,"lo1":-89.0895,"lo2":-89.0444,"dy":0.0017,"dx":0.0017,"nx":28,"ny":28,"refTime":"2023-08-31T21:00:00:Z","depth":"4","parameterNumber":2,"parameterNumberName":"U-component_of_CURRENTS"},"data":[0,0,0,0,0,0,0,0,0,0,0,0,0,0,0,0,0,0,0,0,0,0,0,0,0,0,0,0,0,0,0,0,0,0,0,0,0,0,0,0,0,0,0,0,0,0,0,0,0,0,0,0,0,0,0,0,0,0,0.0934,0.0934,0,0.0983,0.0984,0.0984,0.1025,0.1025,0.1026,0.1027,0.1067,0.1067,0.1068,0,0,0,0,0,0,0,0,0,0,0,0,0,0.0871,0.0872,0.0934,0.0935,0.0935,0.0983,0.0984,0.0984,0.1025,0.1025,0.1026,0.1027,0.1067,0.1067,0.1068,0,0,0,0,0,0,0,0,0,0,0,0,0,0.0906,0.0872,0.0934,0.0963,0.0966,0.0983,0.0984,0.0984,0.1025,0.1026,0.1026,0.1027,0.1067,0.1067,0.1068,0.1055,0,0,0.107,0.1071,0,0,0,0,0,0,0,0,0.0904,0.0908,0.0958,0.0961,0.0964,0.1,0.0977,0.1008,0.1024,0.1,0.1027,0.1028,0.1044,0.1047,0.1052,0.1057,0.1059,0.1071,0.1071,0.1071,0.1072,0,0,0,0,0,0,0,0.0901,0.0906,0.0952,0.0958,0.0963,0.0972,0.0978,0.0983,0.1015,0.1003,0.1006,0.1014,0.1046,0.1051,0.1053,0.1059,0.1071,0.1071,0.1072,0.1072,0.1122,0.1123,0,0,0,0,0,0,0.0898,0.0904,0.095,0.0953,0.0938,0.0973,0.0979,0.0986,0.1015,0.1021,0.1013,0.1016,0.1049,0.1052,0.1055,0.1096,0.1071,0.1072,0.1073,0.1121,0.1122,0.1123,0,0,0,0,0,0,0.0896,0.0902,0.0948,0.0931,0.0938,0.0973,0.0981,0.0987,0.1016,0.1024,0.103,0.1039,0.105,0.1054,0.1082,0.1096,0.1072,0.1073,0.112,0.1121,0.1122,0.1143,0,0,0,0,0,0,0.0894,0.0901,0.0915,0.0931,0.0939,0.0973,0.0981,0.0987,0.1019,0.1024,0.1048,0.1051,0.1051,0.1081,0.1083,0.1096,0.1074,0.1119,0.1121,0.1122,0.1141,0.1145,0.1148,0,0,0,0,0,0.0892,0.0905,0.0915,0.0921,0.0954,0.0974,0.0979,0.1006,0.102,0.1035,0.1054,0.1052,0.1092,0.1082,0.1084,0.1098,0.1118,0.112,0.1122,0.114,0.1144,0.1148,0,0,0,0,0,0,0.0887,0.0911,0.0922,0.0943,0.0965,0.0982,0.1004,0.1017,0.1044,0.1057,0.1061,0.1066,0.1097,0.1096,0.1084,0.1119,0.1105,0.1107,0.1118,0.1122,0.1125,0.1134,0.1074,0,0,0,0,0,0.0891,0.091,0.093,0.095,0.0963,0.0987,0.1003,0.102,0.1041,0.1056,0.1071,0.1088,0.1101,0.1112,0.1124,0.114,0.115,0.1151,0.1155,0.1157,0.1166,0.1179,0.1184,0.1129,0.1129,0.1129,0,0,0.0895,0.0912,0.0924,0.0951,0.0972,0.0987,0.0999,0.1031,0.1046,0.1054,0.1088,0.1104,0.111,0.1132,0.1145,0.1135,0.1184,0.116,0.1162,0.117,0.1181,0.1186,0.1191,0.1131,0.113,0.113,0,0,0.0903,0.0929,0.0944,0.0961,0.0996,0.1007,0.102,0.105,0.1071,0.1097,0.111,0.1136,0.1154,0.1163,0.1167,0.1196,0.1203,0.1203,0.1224,0.1235,0.124,0.1244,0.1285,0.1293,0.1201,0.1201,0.1201,0,0.091,0.0926,0.0952,0.0968,0.0984,0.1016,0.103,0.1051,0.1087,0.1106,0.1114,0.1157,0.1166,0.1188,0.1205,0.1203,0.1223,0.1205,0.1239,0.1243,0.1247,0.1288,0.1296,0.1203,0.1202,0.1202,0.1202,0,0.0919,0.0939,0.0952,0.0978,0.0999,0.1021,0.1048,0.1076,0.1104,0.1125,0.1168,0.1184,0.1211,0.1216,0.1222,0.1255,0.1268,0.1243,0.1227,0.1253,0.1296,0.1304,0.1204,0.1204,0.1204,0.1203,0,0,0.0912,0.095,0.0956,0.097,0.1007,0.1024,0.1054,0.1087,0.1112,0.1152,0.1182,0.1217,0.1244,0.1251,0.1263,0.1276,0.1329,0.128,0.128,0.1319,0.1386,0.132,0.1323,0.131,0.1311,0.1312,0.1413,0,0.0912,0.0935,0.0955,0.0981,0.0995,0.1031,0.1054,0.1093,0.1126,0.1164,0.1199,0.1235,0.125,0.1272,0.1292,0.1316,0.1348,0.1306,0.1357,0.1359,0.1294,0.1328,0.1315,0.1419,0.1421,0.1422,0.1423,0,0.0906,0.0923,0.0945,0.0982,0.0994,0.1017,0.1064,0.1092,0.1149,0.1182,0.1229,0.1255,0.1308,0.1302,0.1373,0.135,0.1383,0.1397,0.14,0.1335,0.1307,0.1382,0.1437,0.1436,0.1435,0.1434,0.1433,0,0.0875,0.0915,0.0933,0.0945,0.0991,0.1017,0.1052,0.1105,0.1132,0.1204,0.1225,0.1291,0.1344,0.1369,0.1424,0.1403,0.1494,0.1458,0.1437,0.1434,0.1454,0.1448,0.151,0.151,0.151,0.151,0.1509,0,0.0853,0.087,0.0927,0.0934,0.0965,0.1012,0.1048,0.1095,0.1154,0.1194,0.1243,0.1284,0.1366,0.142,0.1441,0.1476,0.1515,0.1456,0.1451,0.1464,0.1459,0.1461,0.1454,0.1513,0.1513,0.1512,0.1511,0,0.0814,0.0847,0.087,0.0927,0.0948,0.0978,0.1042,0.1068,0.1134,0.1184,0.121,0.1317,0.1402,0.1457,0.1538,0.1512,0.1529,0.1535,0.1586,0.1579,0.1462,0.1455,0.1508,0.1506,0.1505,0.1504,0.1503,0,0.0792,0.0801,0.0858,0.0876,0.0907,0.0955,0.0983,0.1057,0.1081,0.1194,0.1211,0.1333,0.1395,0.1457,0.1528,0.1569,0.1555,0.1559,0.1474,0.147,0.146,0.1455,0.145,0.1501,0.1501,0.15,0.15,0,0.0749,0.0778,0.0797,0.0833,0.0868,0.0897,0.0947,0.0953,0.1047,0.1109,0.1191,0.1248,0.1363,0.1441,0.1502,0.1515,0.1535,0.1545,0.1546,0.1467,0.1462,0.1452,0.1449,0.1495,0.1496,0.1496,0.1496,0,0.072,0.0723,0.0752,0.0781,0.0821,0.0837,0.0864,0.091,0.0946,0.1063,0.1112,0.1238,0.137,0.1418,0.1457,0.1479,0.1453,0.1392,0.1401,0.1407,0.1324,0.1301,0.129,0,0,0,0,0,0.0685,0.0681,0.07,0.0715,0.0755,0.078,0.0838,0.0869,0.095,0.0983,0.1041,0.1135,0.1236,0.1312,0.1317,0.1411,0.145,0.1409,0.138,0.1469,0.1475,0.1385,0,0,0,0,0,0,0.0657,0.0669,0.0674,0.066,0.0665,0.0693,0.0732,0.0791,0.0805,0.0909,0.0973,0.1064,0.1178,0.1225,0.1296,0.1316,0.1275,0.1494,0.1491,0.1466,0.1471,0.1475,0.1385,0,0,0,0,0]},{"header":{"parameterUnit":"m.s-1","parameterCategory":2,"la1":30.2991,"la2":30.254,"lo1":-89.0895,"lo2":-89.0444,"dy":0.0017,"dx":0.0017,"nx":28,"ny":28,"refTime":"2023-08-31T21:00:00:Z","depth":"4","parameterNumber":3,"parameterNumberName":"V-component_of_CURRENTS"},"data":[0,0,0,0,0,0,0,0,0,0,0,0,0,0,0,0,0,0,0,0,0,0,0,0,0,0,0,0,0,0,0,0,0,0,0,0,0,0,0,0,0,0,0,0,0,0,0,0,0,0,0,0,0,0,0,0,0,0,0.0032,0.0032,0,-0.0001,-0.0001,-0.0002,-0.0021,-0.0021,-0.0021,-0.0021,-0.0066,-0.0067,-0.0068,0,0,0,0,0,0,0,0,0,0,0,0,0,0.0064,0.0064,0.0032,0.0032,0.0031,-0.0001,-0.0001,-0.0002,-0.0021,-0.0021,-0.0021,-0.0021,-0.0066,-0.0067,-0.0068,0,0,0,0,0,0,0,0,0,0,0,0,0,0.0043,0.0064,0.0032,0.0018,0.0017,-0.0001,-0.0001,-0.0002,-0.0021,-0.0021,-0.0021,-0.0021,-0.0065,-0.0067,-0.0068,-0.0077,0,0,-0.0074,-0.0074,0,0,0,0,0,0,0,0,0.0044,0.0041,0.0021,0.0019,0.0017,-0.0007,-0.0007,-0.0028,-0.0021,-0.0007,-0.0021,-0.0021,-0.0047,-0.005,-0.0056,-0.0079,-0.0081,-0.0074,-0.0075,-0.0076,-0.0076,0,0,0,0,0,0,0,0.0045,0.0043,0.0019,0.002,0.0018,0.0008,0.0005,-0.0011,-0.0026,-0.0008,-0.0009,-0.0013,-0.0048,-0.0055,-0.0058,-0.0082,-0.0074,-0.0075,-0.0076,-0.0077,-0.0112,-0.0112,0,0,0,0,0,0,0.005,0.0044,0.002,0.0018,0.0031,0.0008,0.0004,0.0001,-0.0026,-0.003,-0.0013,-0.0014,-0.0052,-0.0056,-0.0059,-0.0058,-0.0076,-0.0077,-0.0078,-0.0112,-0.0112,-0.0112,0,0,0,0,0,0,0.0051,0.0049,0.0021,0.003,0.0026,0.0008,0.0004,0.0,-0.0007,-0.0029,-0.0034,-0.0016,-0.0052,-0.0057,-0.007,-0.0061,-0.0078,-0.0079,-0.0112,-0.0112,-0.0112,-0.0065,0,0,0,0,0,0,0.0052,0.0049,0.0049,0.0031,0.0026,0.0014,0.0004,-0.0,-0.0009,-0.001,-0.0034,-0.0038,-0.0052,-0.0067,-0.0071,-0.0063,-0.0081,-0.0112,-0.0112,-0.0112,-0.0067,-0.0063,-0.006,0,0,0,0,0,0.0054,0.0054,0.0049,0.0046,0.0026,0.0015,0.0011,-0.0002,-0.0009,-0.001,-0.0024,-0.0037,-0.0069,-0.0068,-0.0073,-0.0066,-0.0112,-0.0112,-0.0112,-0.0068,-0.0064,-0.006,0,0,0,0,0,0,0.0067,0.0051,0.0046,0.0041,0.0031,0.0012,0.0009,-0.0001,-0.0014,-0.0015,-0.0037,-0.0042,-0.0051,-0.0067,-0.0065,-0.0077,-0.0093,-0.0094,-0.0058,-0.0054,-0.0051,-0.0024,-0.0082,0,0,0,0,0,0.007,0.0068,0.0051,0.0049,0.0044,0.0027,0.0021,0.0012,-0.0002,-0.0008,-0.0025,-0.0042,-0.0055,-0.006,-0.0077,-0.0082,-0.0093,-0.0082,-0.0078,-0.0075,-0.0058,-0.006,-0.0054,-0.0111,-0.0111,-0.0111,0,0,0.0074,0.0066,0.0064,0.0051,0.0042,0.0045,0.0023,0.0016,0.0022,-0.0011,-0.0011,-0.0034,-0.0055,-0.006,-0.0065,-0.007,-0.0071,-0.0075,-0.0072,-0.0056,-0.0059,-0.0053,-0.0048,-0.0111,-0.0111,-0.0111,0,0,0.0087,0.0075,0.008,0.0075,0.0065,0.0056,0.0055,0.0038,0.0034,0.0027,0.0007,-0.0006,-0.0031,-0.0037,-0.0045,-0.0034,-0.0057,-0.0047,-0.0004,-0.0006,-0.0001,0.0003,-0.0025,-0.0023,-0.0041,-0.0041,-0.0041,0,0.0093,0.0099,0.0079,0.0086,0.009,0.0064,0.0077,0.0069,0.005,0.0057,0.0034,0.0012,-0.0014,-0.0005,-0.0004,-0.0025,-0.0038,-0.0015,-0.0,0.0004,0.0008,-0.0022,-0.002,-0.0039,-0.0039,-0.004,-0.004,0,0.0111,0.0118,0.0121,0.0125,0.0125,0.013,0.012,0.012,0.0108,0.0103,0.0102,0.0066,0.006,0.0042,0.0021,0.0037,0.0013,0.0002,-0.0005,0.0017,-0.0017,-0.0016,-0.0036,-0.0037,-0.0037,-0.0038,0,0,0.0123,0.0133,0.0135,0.0153,0.0149,0.0155,0.0167,0.0178,0.0203,0.0171,0.0198,0.0161,0.0145,0.0135,0.0104,0.0097,0.0094,0.0066,0.0064,0.0047,0.0073,0.0023,0.0018,0.0089,0.009,0.009,0.0032,0,0.0146,0.0174,0.0172,0.0206,0.0223,0.0217,0.0237,0.0244,0.0244,0.0261,0.0228,0.0232,0.018,0.0177,0.0164,0.0115,0.0102,0.011,0.0048,0.0046,0.0007,0.002,0.0093,0.0032,0.0032,0.0032,0.0032,0,0.0167,0.0186,0.0222,0.0263,0.0271,0.0289,0.033,0.0348,0.0363,0.0363,0.0362,0.0332,0.0313,0.0266,0.0204,0.0212,0.0153,0.0108,0.0104,0.0049,-0.0002,0.0009,0.0033,0.0033,0.0033,0.0033,0.0033,0,0.0191,0.0226,0.026,0.0271,0.0305,0.0331,0.0355,0.0382,0.0412,0.0434,0.0443,0.0422,0.0396,0.0341,0.0224,0.0225,0.0144,0.0134,0.0031,0.0026,0.0068,0.0064,0.0101,0.0101,0.0101,0.0102,0.0102,0,0.0217,0.0247,0.0278,0.0298,0.0353,0.0369,0.0433,0.0454,0.0494,0.0527,0.0499,0.0496,0.0415,0.0345,0.0257,0.0134,0.0166,0.0046,0.0017,0.0083,0.0082,0.0066,0.0063,0.0099,0.01,0.01,0.0101,0,0.0234,0.0251,0.0296,0.0343,0.0364,0.0405,0.0475,0.0522,0.055,0.0589,0.0593,0.0554,0.0458,0.0351,0.0241,0.0161,0.0061,0.0006,0.0067,0.004,-0.0063,-0.0063,-0.0087,-0.0089,-0.009,-0.0092,-0.0093,0,0.0243,0.0266,0.0326,0.0356,0.0379,0.0443,0.0489,0.0545,0.0585,0.0608,0.0616,0.0545,0.0492,0.0301,0.0193,0.0026,-0.0007,-0.0055,-0.0035,-0.0051,-0.0077,-0.0075,-0.0073,-0.0096,-0.0096,-0.0097,-0.0097,0,0.026,0.0279,0.0315,0.0376,0.0427,0.0492,0.0554,0.0586,0.0637,0.0658,0.0626,0.0536,0.0419,0.0283,0.0139,0.0022,-0.0011,-0.0074,-0.007,-0.0051,-0.0063,-0.0086,-0.0082,-0.0103,-0.0102,-0.0102,-0.0101,0,0.0269,0.0293,0.0336,0.0391,0.0455,0.0514,0.0554,0.0588,0.0629,0.0645,0.0626,0.0517,0.0464,0.0277,0.015,0.0025,0.0002,-0.0025,-0.0024,-0.0019,0.0013,0.0009,-0.0025,0,0,0,0,0,0.0273,0.0297,0.0349,0.0409,0.0473,0.0511,0.0583,0.0617,0.0652,0.063,0.0633,0.0521,0.034,0.027,0.0136,0.0113,-0.0024,-0.0049,-0.0056,-0.0136,-0.0129,-0.0108,0,0,0,0,0,0,0.0273,0.0315,0.0343,0.041,0.0452,0.0526,0.0572,0.06,0.0588,0.0602,0.0506,0.0479,0.03,0.0406,0.0127,0.0092,0.0069,-0.0126,-0.0129,-0.014,-0.0134,-0.0128,-0.0104,0,0,0,0,0]}]]